Location: �clusier
(49.9361°N, 2.7869°E)
Time: 22:01:17
(UTC+00:00)

Cosmos 2360 Rocket - Pass Details

Date: 16 June 2021
Orbit: 835 x 843 km, 71.0° (Epoch: 01 August)

Event Time Altitude Azimuth Distance (km) Brightness Sun altitude
Rises 23:27:41 0° 254° (WSW) 3,390 5.2 -16.5°
Reaches altitude 10° 23:30:40 10° 269° (W) 2,457 4.7 -16.6°
Maximum altitude 23:35:02 22° 320° (NW) 1,742 4.5 -16.6°
Drops below altitude 10° 23:39:24 10° 11° (NNE) 2,462 5.8 -16.6°
Sets 23:42:25 0° 27° (NNE) 3,398 6.5 -16.7°
